Погода в Эль-Фаллудже

Ирак     33°21′39″N   43°47′11″E
темп.,
°C
ветер,
м/с
пор.,
м/с
влажн.,
%
обл.,
%
осадки,
мм/ч
давл.,
гПа
погр.,
м
20 сентября, пн
пн2000:00+30ссз45210 0.0 100943
03:00+28сз44290 0.0 100930
06:00+27сз44360 0.0 101036
09:00+32сз67210 0.0 1011507
12:00+37сз68130 0.0 10101622
15:00+38сз78140 0.0 10072304
18:00+34ссз46180 0.0 100872
21:00+32сз57230 0.0 100887
21 сентября, вт
вт2100:00+30сз59260 0.0 1008103
03:00+29сз59290 0.0 1008108
06:00+27сз58350 0.0 100898
09:00+33сз68220 0.0 1009523
12:00+38сз78130 0.0 10072534
15:00+39ссз89110 0.0 10062664
18:00+35сз45150 0.0 100554
21:00+32зсз59190 0.0 1006103
22 сентября, ср
ср2200:00+30зсз57220 0.0 100577
03:00+29зсз57250 0.0 100485
06:00+27зсз59280 0.0 1005111
09:00+33сз710190 0.0 1005556
12:00+38сз89140 0.0 10042344
15:00+39ссз78110 0.0 10023043
18:00+35ссз44140 0.0 100235
21:00+32с33170 0.0 100217
23 сентября, чт
чт2300:00+31ссз22200 0.0 100211
03:00+29ссз22230 0.0 100211
06:00+27ссз11270 0.0 100311
09:00+34юз22170 0.0 1004406
12:00+39ююз45110 0.0 10031806
15:00+40ююз56100 0.0 10012043
18:00+36ююз22130 0.0 100111
21:00+34сз44160 0.0 100224
24 сентября, пт
пт2400:00+32с44190 0.0 100225
03:00+29сз56280 0.0 100362
06:00+27сз612310 0.0 1004184
09:00+32сз78250 0.0 1005531
12:00+36зсз55190 0.0 10051137
15:00+37сз54160 0.0 10041663
18:00+34ссз45220 0.0 100555
21:00+30ссз59300 0.0 1006132